Weather Roundup
Issued by NWS

Home | Current Version | Previous Version | Graphics & Text | Print | Product List | Glossary Off
Versions: 1 2 3 4 5 6 7 8 9 10 11 12 13 14 15 16 17 18 19 20 21 22 23 24 25 26 27 28 29 30 31 32 33 34 35 36 37 38 39 40 41 42 43 44 45 46 47 48 49 50

000
NZUS93 KARX 210659
HRRWXR

CURRENT HOURLY OBSERVATIONS ACROSS
MUCH OF THE UPPER MISSISSIPPI VALLEY
NATIONAL WEATHER SERVICE LA CROSSE WI
200 AM CDT MON AUG 21 2017


...SOUTHEAST MINNESOTA...


CITY           SKY/WX    TMP DP  RH WIND       PRES   REMARKS
ROCHESTER      PTCLDY    66  66 100 S6        30.01F
ROCHESTER/MAYO PTSUNNY   69  69  99 CALM      30.02R
WINONA         MOCLDY    68  66  94 CALM      30.01S FOG
AUSTIN         CLOUDY    66  64  94 CALM      30.01S
ALBERT LEA     CLOUDY    70  68  94 CALM      30.00F
DODGE CENTER   CLEAR     66  63  88 CALM      30.01R
PRESTON        PTCLDY    66  64  91 CALM      30.03R
OWATONNA       CLEAR     68  66  94 SE6       30.01R
FARIBAULT      CLEAR     68  66  94 CALM      30.01R
$$

...ELSEWHERE IN MINNESOTA...


CITY           SKY/WX    TMP DP  RH WIND       PRES   REMARKS
MINNEAPOLIS    PTCLDY    68  61  78 N7        30.00F
INTNL FALLS    CLEAR     46  44  93 CALM      30.03S
DULUTH         CLEAR     56  53  90 NW5       30.04F
RED WING       CLEAR     70  63  78 CALM      29.97F
REDWOOD FALLS  CLEAR     63  60  90 CALM      30.01F
MANKATO        MOCLDY    68  66  93 N7        30.01R
WORTHINGTON    CLOUDY    65  64  97 NE9       30.02S
FAIRMONT       CLOUDY    67  66  97 NE3       30.00R
$$

...SOUTHWEST WISCONSIN...


CITY           SKY/WX    TMP DP  RH WIND       PRES   REMARKS
LA CROSSE      CLEAR     72  68  87 SE7       30.00F
PRAIRIE DU CHI CLEAR     64  63  94 SE3       30.01F
BOSCOBEL       FOG       60  59  96 CALM      30.02S VSB 1
LONE ROCK      FOG       63  63 100 E3        30.01F VSB 1/4
PLATTEVILLE    CLEAR     63  63 100 CALM      30.03F
FORT MC COY    CLEAR     61  61 100 CALM      30.03F
CAMP DOUGLAS   CLEAR     62  62 100 CALM      30.01F
MAUSTON-NEW LI SUNNY     64  63  97 CALM      30.02S
VIROQUA        FAIR      65  64  96 CALM      30.02F
WIS DELLS      CLEAR     64  62  94 CALM      30.02F
$$

...ELSEWHERE IN WISCONSIN...


CITY           SKY/WX    TMP DP  RH WIND       PRES   REMARKS
MILWAUKEE      MOCLDY    70  66  87 CALM      30.04F
MADISON        CLEAR     68  66  93 S3        30.00F
GREEN BAY      CLOUDY    68  68 100 CALM      30.01F
EAU CLAIRE     NOT AVBL
BLACK RVR FLS  FOG       63  63 100 CALM      30.01F VSB<1/4
MEDFORD        PTCLDY    64  63  97 CALM      30.03F FOG
WAUSAU         CLEAR     68  66  93 S5        30.01F
WIS RAPIDS     CLEAR     66  66 100 SW5       30.03F
MARSHFIELD     CLEAR     67  64  90 CALM      30.02F
RICE LAKE      CLEAR     63  60  89 N3        30.05F
$$

...NORTHEAST IOWA...


CITY           SKY/WX    TMP DP  RH WIND       PRES   REMARKS
WATERLOO       CLOUDY    69  66  90 S8        30.01S
DUBUQUE        CLEAR     64  63  96 CALM      30.03S
DECORAH        CLEAR     66  64  94 S6        30.01S
MASON CITY     CLOUDY    68  66  93 S6        30.02S
CHARLES CITY   CLOUDY    68  68 100 S7        30.02S
OELWEIN        CLOUDY    64  64 100 S8        30.04R
$$

...ELSEWHERE IN IOWA...


CITY           SKY/WX    TMP DP  RH WIND       PRES   REMARKS
DES MOINES     CLOUDY    73  64  73 VRB5      30.01R THUNDER
IOWA CITY      PTCLDY    69  66  90 CALM      30.02F
FORT DODGE     CLOUDY    70  64  83 S8        30.02F
MARSHALLTOWN   CLOUDY    68  68 100 E5        30.01R
CEDAR RAPIDS     N/A     67  67 100 E3        30.01F FOG
$$

...NORTHERN ILLINOIS...


CITY           SKY/WX    TMP DP  RH WIND       PRES   REMARKS
CHICAGO-OHARE  CLOUDY    74  69  85 S9        30.03F
CHICAGO-MIDWAY CLOUDY    76  72  87 SE5       30.05F
MOLINE         MOCLDY    67  63  87 CALM      30.01R FOG
ROCKFORD       CLEAR     70  66  87 CALM      30.03F
PEORIA         CLEAR     70  70 100 CALM      30.04S
$$

NOTE: "FAIR" INDICATES FEW OR NO CLOUDS BELOW 12,000 FEET WITH NO
SIGNIFICANT WEATHER AND/OR OBSTRUCTIONS TO VISIBILITY. WIND
SPEEDS ARE IN MILES-PER-HOUR.




USA.gov is the U.S. government's official web portal to all federal, state and local government web resources and services.